[[{"header":{"parameterUnit":"m.s-1","parameterCategory":2,"la1":30.2991,"la2":30.254,"lo1":-89.0895,"lo2":-89.0444,"dy":0.0017,"dx":0.0017,"nx":28,"ny":28,"refTime":"2025-09-15T03:00:00:Z","depth":"0","parameterNumber":2,"parameterNumberName":"U-component_of_CURRENTS"},"data":[0,0,0,0,0,0,0,0,0,0,0,0,0,0,0,0,0,0,0,0,0,0,0,0,0,0,0,0,0,0,0,0,0,0,0,0,0,0,0,0,0,0,0,0,0,0,0,0,0,0,0,0,0,0,0,0,0,0,0.2076,0.2076,0,0.2055,0.2055,0.2054,0.2027,0.2027,0.2027,0.2027,0.1915,0.1912,0.1909,0,0,0,0,0,0,0,0,0,0,0,0,0,0.207,0.2071,0.2076,0.2077,0.2077,0.2055,0.2055,0.2054,0.2027,0.2027,0.2027,0.2027,0.1916,0.1912,0.1909,0,0,0,0,0,0,0,0,0,0,0,0,0,0.206,0.2071,0.2076,0.2063,0.2062,0.2056,0.2055,0.2054,0.2027,0.2027,0.2027,0.2027,0.1917,0.1912,0.1908,0.1884,0,0,0.1895,0.1893,0,0,0,0,0,0,0,0,0.2061,0.206,0.2065,0.2064,0.2063,0.2047,0.2012,0.1994,0.2027,0.2036,0.2027,0.2026,0.1953,0.1946,0.1938,0.1878,0.1874,0.1894,0.1892,0.189,0.1889,0,0,0,0,0,0,0,0.2061,0.206,0.2064,0.2065,0.2064,0.2051,0.2049,0.2008,0.1991,0.2035,0.2034,0.2038,0.1951,0.1942,0.1935,0.1872,0.1895,0.1891,0.1888,0.1886,0.1823,0.1823,0,0,0,0,0,0,0.2073,0.2061,0.2065,0.2064,0.2066,0.2052,0.205,0.2049,0.1993,0.1986,0.2038,0.2037,0.195,0.194,0.1931,0.1923,0.189,0.1886,0.1883,0.1822,0.1823,0.1824,0,0,0,0,0,0,0.2073,0.2074,0.2066,0.2065,0.2064,0.2053,0.2052,0.2049,0.2041,0.1997,0.1988,0.2035,0.1949,0.1937,0.1903,0.1918,0.1884,0.188,0.1821,0.1822,0.1823,0.1893,0,0,0,0,0,0,0.2073,0.2073,0.2071,0.2066,0.2065,0.206,0.2053,0.2049,0.2046,0.2044,0.1991,0.198,0.1948,0.191,0.1899,0.1911,0.1877,0.1819,0.1821,0.1823,0.1889,0.1896,0.1902,0,0,0,0,0,0.2073,0.2068,0.2071,0.2072,0.2064,0.206,0.2057,0.2047,0.2046,0.2039,0.2013,0.1982,0.1914,0.1907,0.1894,0.1905,0.1819,0.1821,0.1823,0.1886,0.1895,0.1902,0,0,0,0,0,0,0.2059,0.2065,0.2068,0.2064,0.2065,0.2057,0.2053,0.205,0.2026,0.2025,0.1982,0.197,0.1951,0.1918,0.1912,0.1895,0.1865,0.1865,0.1918,0.1925,0.1932,0.1963,0.1873,0,0,0,0,0,0.2059,0.2058,0.2064,0.206,0.2065,0.2062,0.2059,0.2056,0.204,0.203,0.1997,0.1968,0.195,0.1929,0.1901,0.1879,0.1947,0.1883,0.1889,0.1895,0.1913,0.2055,0.2078,0.1831,0.1831,0.1831,0,0,0.2056,0.2057,0.2057,0.2058,0.206,0.207,0.2058,0.206,0.2065,0.202,0.2006,0.1984,0.195,0.1937,0.1926,0.1909,0.2003,0.1898,0.1903,0.1918,0.206,0.2085,0.2107,0.1832,0.1832,0.1832,0,0,0.206,0.2051,0.2062,0.2066,0.2075,0.2071,0.2076,0.2073,0.2067,0.2054,0.2037,0.2034,0.1978,0.1978,0.1967,0.1991,0.2036,0.1973,0.2024,0.2162,0.2185,0.2206,0.2342,0.2375,0.1973,0.1973,0.1974,0,0.2059,0.2071,0.2063,0.208,0.2088,0.2077,0.2098,0.2088,0.2073,0.2088,0.2056,0.2053,0.2008,0.2037,0.2038,0.2008,0.21,0.1996,0.2176,0.2198,0.2218,0.2353,0.2388,0.1977,0.1977,0.1976,0.1976,0,0.2082,0.2091,0.2097,0.2116,0.212,0.2129,0.2131,0.2132,0.2124,0.2131,0.2154,0.2117,0.2132,0.2107,0.2068,0.2176,0.2202,0.2176,0.2166,0.2249,0.2384,0.2419,0.1982,0.1981,0.198,0.1979,0,0,0.2097,0.2112,0.2117,0.2134,0.2142,0.2149,0.2165,0.2191,0.2233,0.2212,0.2284,0.2235,0.2249,0.2239,0.2211,0.2293,0.2495,0.2292,0.2297,0.2445,0.2832,0.2779,0.2812,0.252,0.2526,0.2531,0.2877,0,0.2125,0.2153,0.2158,0.219,0.2206,0.2211,0.2232,0.2255,0.2273,0.2334,0.2335,0.2373,0.2291,0.2314,0.2391,0.2471,0.2589,0.2405,0.2714,0.2723,0.2681,0.2851,0.2736,0.3029,0.2912,0.2918,0.2922,0,0.2161,0.2171,0.2202,0.2236,0.2249,0.2267,0.2326,0.2346,0.2424,0.245,0.2511,0.2526,0.2623,0.2548,0.2776,0.2674,0.2769,0.2825,0.284,0.2791,0.2736,0.2922,0.3098,0.2948,0.2977,0.2972,0.2968,0,0.217,0.221,0.2229,0.2238,0.2271,0.23,0.2324,0.2388,0.2427,0.2547,0.2615,0.2728,0.2804,0.2943,0.3011,0.2946,0.3282,0.3218,0.327,0.3268,0.3229,0.3212,0.3308,0.3431,0.343,0.3429,0.3428,0,0.2189,0.221,0.2238,0.2243,0.2287,0.232,0.2384,0.2429,0.2534,0.261,0.2683,0.2778,0.2912,0.3075,0.3142,0.3325,0.3412,0.334,0.3375,0.3246,0.3227,0.3135,0.3049,0.3442,0.3439,0.3437,0.3435,0,0.2181,0.22,0.2226,0.2268,0.2283,0.2316,0.2387,0.245,0.2549,0.267,0.2719,0.2894,0.3107,0.3229,0.3478,0.3497,0.3564,0.3695,0.3523,0.3529,0.3399,0.332,0.3406,0.3307,0.3865,0.3866,0.3867,0,0.2167,0.2178,0.222,0.2246,0.2262,0.2311,0.2352,0.2438,0.2508,0.2716,0.2788,0.3027,0.3164,0.3512,0.3615,0.3813,0.3631,0.38,0.3628,0.3429,0.3371,0.3205,0.3101,0.3632,0.3631,0.363,0.363,0,0.216,0.218,0.221,0.223,0.2273,0.2296,0.2363,0.2414,0.2539,0.2656,0.2833,0.2972,0.3297,0.3449,0.3685,0.3764,0.3584,0.3785,0.3652,0.3272,0.3033,0.2939,0.3357,0.3622,0.3622,0.3623,0.3623,0.3624,0.2178,0.2177,0.2216,0.2229,0.2263,0.2267,0.226,0.2354,0.2439,0.2588,0.2785,0.2977,0.3236,0.3551,0.3601,0.3584,0.3554,0.3496,0.3454,0.3332,0.3105,0.3491,0.3717,0.3718,0.372,0.3721,0.3721,0,0.2187,0.2186,0.221,0.2209,0.2194,0.2217,0.2255,0.2242,0.2294,0.2514,0.2655,0.2943,0.3105,0.3273,0.3366,0.3267,0.3118,0.3165,0.29,0.2842,0.3284,0.3132,0.3149,0.3149,0.3149,0.3149,0.315,0.315,0.2211,0.2212,0.2188,0.2139,0.2118,0.2048,0.2035,0.2048,0.2158,0.2322,0.2499,0.2711,0.2945,0.3071,0.2994,0.2934,0.2665,0.259,0.2545,0.2818,0.2843,0.2866,0.2701,0.2628,0.2627,0.199,0.1985,0.1981]},{"header":{"parameterUnit":"m.s-1","parameterCategory":2,"la1":30.2991,"la2":30.254,"lo1":-89.0895,"lo2":-89.0444,"dy":0.0017,"dx":0.0017,"nx":28,"ny":28,"refTime":"2025-09-15T03:00:00:Z","depth":"0","parameterNumber":3,"parameterNumberName":"V-component_of_CURRENTS"},"data":[0,0,0,0,0,0,0,0,0,0,0,0,0,0,0,0,0,0,0,0,0,0,0,0,0,0,0,0,0,0,0,0,0,0,0,0,0,0,0,0,0,0,0,0,0,0,0,0,0,0,0,0,0,0,0,0,0,0,-0.0553,-0.0555,0,-0.0658,-0.0659,-0.066,-0.0704,-0.0704,-0.0704,-0.0704,-0.0781,-0.0783,-0.0785,0,0,0,0,0,0,0,0,0,0,0,0,0,-0.0428,-0.043,-0.0553,-0.0555,-0.0556,-0.0658,-0.0659,-0.0661,-0.0704,-0.0704,-0.0704,-0.0704,-0.078,-0.0783,-0.0785,0,0,0,0,0,0,0,0,0,0,0,0,0,-0.05,-0.0431,-0.0553,-0.0592,-0.0597,-0.0658,-0.066,-0.0661,-0.0704,-0.0704,-0.0704,-0.0704,-0.0779,-0.0782,-0.0785,-0.0803,0,0,-0.0794,-0.0796,0,0,0,0,0,0,0,0,-0.0496,-0.0505,-0.0585,-0.059,-0.0595,-0.0671,-0.0644,-0.0708,-0.0704,-0.0661,-0.0704,-0.0704,-0.0743,-0.0749,-0.0765,-0.0807,-0.081,-0.0795,-0.0797,-0.0798,-0.0799,0,0,0,0,0,0,0,-0.0491,-0.0501,-0.0592,-0.0587,-0.0593,-0.0618,-0.0628,-0.0656,-0.0698,-0.0665,-0.0669,-0.0685,-0.0745,-0.0762,-0.0767,-0.0811,-0.0795,-0.0797,-0.0799,-0.08,-0.0874,-0.0874,0,0,0,0,0,0,-0.0482,-0.0496,-0.0589,-0.0596,-0.0548,-0.062,-0.0631,-0.0644,-0.0698,-0.0708,-0.0684,-0.0686,-0.0757,-0.0764,-0.077,-0.0792,-0.0798,-0.0801,-0.0802,-0.0874,-0.0874,-0.0874,0,0,0,0,0,0,-0.0478,-0.0489,-0.0585,-0.055,-0.0565,-0.0622,-0.0637,-0.0646,-0.0661,-0.0714,-0.0722,-0.069,-0.0757,-0.0766,-0.0803,-0.0795,-0.0802,-0.0805,-0.0873,-0.0874,-0.0874,-0.0837,0,0,0,0,0,0,-0.0474,-0.0487,-0.0491,-0.0549,-0.0566,-0.0612,-0.0638,-0.0648,-0.0673,-0.0676,-0.0721,-0.0729,-0.0758,-0.0798,-0.0806,-0.08,-0.0807,-0.0873,-0.0873,-0.0874,-0.0838,-0.0836,-0.0834,0,0,0,0,0,-0.0469,-0.0474,-0.049,-0.0502,-0.057,-0.0612,-0.0622,-0.0662,-0.0672,-0.0676,-0.0716,-0.0727,-0.0805,-0.0801,-0.081,-0.0804,-0.0873,-0.0873,-0.0874,-0.0839,-0.0836,-0.0834,0,0,0,0,0,0,-0.0415,-0.0482,-0.05,-0.0522,-0.056,-0.062,-0.0631,-0.0657,-0.0692,-0.0694,-0.0737,-0.0748,-0.0778,-0.0797,-0.0792,-0.0826,-0.0837,-0.0839,-0.0808,-0.0806,-0.0804,-0.075,-0.081,0,0,0,0,0,-0.0407,-0.0433,-0.049,-0.0507,-0.0522,-0.0573,-0.0595,-0.0622,-0.0664,-0.0679,-0.0715,-0.0751,-0.0786,-0.08,-0.0835,-0.0854,-0.0809,-0.0854,-0.0852,-0.085,-0.0812,-0.0752,-0.074,-0.0875,-0.0875,-0.0875,0,0,-0.0389,-0.0432,-0.0445,-0.0498,-0.053,-0.0543,-0.0585,-0.0614,-0.0624,-0.0682,-0.0703,-0.0749,-0.0792,-0.082,-0.0833,-0.0834,-0.0787,-0.0851,-0.0849,-0.0811,-0.0751,-0.0737,-0.0725,-0.0875,-0.0875,-0.0875,0,0,-0.0366,-0.0403,-0.0412,-0.044,-0.049,-0.0522,-0.0525,-0.0581,-0.0602,-0.0638,-0.0681,-0.0716,-0.0771,-0.0796,-0.0817,-0.0821,-0.0783,-0.0838,-0.0778,-0.0722,-0.0709,-0.0697,-0.0608,-0.0588,-0.0831,-0.0831,-0.0831,0,-0.0334,-0.036,-0.0418,-0.0428,-0.0441,-0.0504,-0.0499,-0.0534,-0.0595,-0.0599,-0.0635,-0.0696,-0.0752,-0.0758,-0.0776,-0.0812,-0.0758,-0.0786,-0.0714,-0.0702,-0.069,-0.0602,-0.0581,-0.0829,-0.083,-0.083,-0.083,0,-0.0318,-0.0332,-0.0336,-0.037,-0.0391,-0.0401,-0.0451,-0.0469,-0.0506,-0.0537,-0.0558,-0.0631,-0.0648,-0.0693,-0.0745,-0.07,-0.0679,-0.0721,-0.0711,-0.0673,-0.0584,-0.0562,-0.0827,-0.0827,-0.0828,-0.0828,0,0,-0.0246,-0.031,-0.0306,-0.03,-0.0358,-0.0362,-0.0381,-0.04,-0.0367,-0.0449,-0.0397,-0.0514,-0.0533,-0.0555,-0.0615,-0.0594,-0.0498,-0.062,-0.0618,-0.0511,-0.0326,-0.0315,-0.029,-0.0521,-0.0517,-0.0514,-0.0291,0,-0.0203,-0.0204,-0.0252,-0.0228,-0.0222,-0.0276,-0.0268,-0.0295,-0.0317,-0.0283,-0.0359,-0.0336,-0.0484,-0.0462,-0.0478,-0.0469,-0.0441,-0.0551,-0.0394,-0.0387,-0.0366,-0.0265,-0.0332,-0.0139,-0.027,-0.0266,-0.0263,0,-0.0153,-0.0165,-0.0141,-0.0137,-0.0132,-0.0119,-0.0087,-0.0088,-0.0083,-0.0087,-0.0099,-0.0133,-0.012,-0.024,-0.0202,-0.0257,-0.0287,-0.0301,-0.0294,-0.0271,-0.0335,-0.0202,-0.0094,-0.0311,-0.023,-0.0233,-0.0235,0,-0.0058,-0.0069,-0.0043,-0.0047,-0.0061,-0.0033,-0.0023,-0.0018,0.0043,0.008,0.0169,0.0121,0.0198,0.0126,0.0054,-0.0043,0.0133,-0.0001,-0.0018,-0.0017,-0.0034,-0.0039,-0.0098,0.0036,0.0036,0.0035,0.0035,0,0.0016,0.0049,0.0014,0.0034,0.0117,0.0075,0.0191,0.0189,0.0271,0.0412,0.0308,0.0449,0.0301,0.0351,0.0203,0.0209,0.0259,0.005,0.0056,-0.0025,-0.0032,-0.0192,-0.0306,0.0044,0.0042,0.004,0.0039,0,0.0134,0.0094,0.0144,0.0145,0.0164,0.0239,0.0347,0.0452,0.0499,0.0703,0.0751,0.0788,0.0848,0.0697,0.066,0.0481,0.0334,0.0397,0.033,0.0321,0.0038,-0.007,0.0001,-0.0069,0.0424,0.0425,0.0427,0,0.0196,0.022,0.0252,0.0319,0.0335,0.0434,0.053,0.057,0.0713,0.0929,0.1078,0.1183,0.1275,0.1221,0.0921,0.0731,0.0481,0.0538,0.0297,0.0073,-0.0043,-0.0117,-0.0189,0.03,0.0301,0.0301,0.0301,0,0.033,0.0337,0.0386,0.0501,0.0606,0.0731,0.0877,0.1015,0.1129,0.1303,0.1567,0.1662,0.1584,0.1381,0.1094,0.0889,0.0382,0.0538,0.0321,-0.0106,-0.0197,-0.028,0.0119,0.0304,0.0304,0.0303,0.0303,0.0303,0.0463,0.053,0.0594,0.0719,0.0844,0.103,0.115,0.1332,0.156,0.1811,0.1905,0.2039,0.1699,0.1282,0.1022,0.0417,0.0437,0.0162,0.0074,0.0039,-0.0109,0.0322,0.0482,0.0483,0.0484,0.0484,0.0485,0,0.062,0.0689,0.0815,0.0959,0.1123,0.1146,0.1388,0.1512,0.1774,0.1988,0.2171,0.2047,0.1615,0.111,0.0349,-0.0015,-0.0186,-0.0228,-0.0412,-0.0449,-0.0055,-0.0154,-0.0142,-0.0142,-0.0142,-0.0142,-0.0141,-0.0141,0.0722,0.0859,0.0903,0.1177,0.1287,0.1478,0.1604,0.1787,0.194,0.2137,0.2169,0.2198,0.175,0.0521,-0.0346,-0.0527,-0.0795,-0.0804,-0.0883,-0.074,-0.0714,-0.069,-0.0814,-0.094,-0.0941,-0.1296,-0.13,-0.1303]}],[{"header":{"parameterUnit":"m.s-1","parameterCategory":2,"la1":30.2991,"la2":30.254,"lo1":-89.0895,"lo2":-89.0444,"dy":0.0017,"dx":0.0017,"nx":28,"ny":28,"refTime":"2025-09-15T03:00:00:Z","depth":"2","parameterNumber":2,"parameterNumberName":"U-component_of_CURRENTS"},"data":[0,0,0,0,0,0,0,0,0,0,0,0,0,0,0,0,0,0,0,0,0,0,0,0,0,0,0,0,0,0,0,0,0,0,0,0,0,0,0,0,0,0,0,0,0,0,0,0,0,0,0,0,0,0,0,0,0,0,0.2368,0.2371,0,0.261,0.2612,0.2614,0.2667,0.2666,0.2665,0.2663,0.2626,0.2626,0.2626,0,0,0,0,0,0,0,0,0,0,0,0,0,0.2282,0.228,0.2368,0.2372,0.2375,0.261,0.2612,0.2615,0.2667,0.2666,0.2664,0.2663,0.2626,0.2626,0.2626,0,0,0,0,0,0,0,0,0,0,0,0,0,0.2394,0.228,0.2367,0.2434,0.2443,0.2609,0.2612,0.2616,0.2667,0.2666,0.2664,0.2662,0.2626,0.2626,0.2626,0.2663,0,0,0.2627,0.2627,0,0,0,0,0,0,0,0,0.2387,0.2396,0.2421,0.243,0.244,0.2612,0.2569,0.262,0.2668,0.2576,0.2663,0.2661,0.2601,0.2603,0.2648,0.2661,0.266,0.2627,0.2627,0.2627,0.2627,0,0,0,0,0,0,0,0.2379,0.2388,0.2457,0.2425,0.2437,0.2566,0.2576,0.2581,0.2585,0.2584,0.2589,0.2627,0.2603,0.2648,0.2646,0.2659,0.2627,0.2627,0.2627,0.2627,0.2596,0.2595,0,0,0,0,0,0,0.2346,0.2378,0.245,0.2465,0.2416,0.2568,0.2579,0.2553,0.2591,0.26,0.2628,0.2629,0.2648,0.2646,0.2645,0.2617,0.2627,0.2627,0.2627,0.2597,0.2596,0.2595,0,0,0,0,0,0,0.2342,0.2347,0.244,0.2437,0.2458,0.2569,0.2542,0.2559,0.2604,0.263,0.2631,0.2655,0.2647,0.2644,0.2603,0.2618,0.2627,0.2627,0.2598,0.2597,0.2595,0.2606,0,0,0,0,0,0,0.2337,0.2342,0.2332,0.2432,0.2457,0.2537,0.2545,0.2566,0.2633,0.2635,0.2653,0.2648,0.2645,0.2603,0.2603,0.2618,0.2628,0.2599,0.2597,0.2596,0.2607,0.2605,0.2604,0,0,0,0,0,0.2332,0.2326,0.2327,0.2339,0.2429,0.2539,0.2564,0.2636,0.2636,0.2666,0.2633,0.2648,0.2593,0.2601,0.2603,0.2618,0.26,0.2598,0.2596,0.2608,0.2606,0.2604,0,0,0,0,0,0,0.227,0.2335,0.2338,0.2343,0.2432,0.255,0.2614,0.264,0.2653,0.2643,0.2631,0.2624,0.2598,0.2597,0.2606,0.26,0.2603,0.2601,0.2611,0.2609,0.2608,0.2636,0.2628,0,0,0,0,0,0.2252,0.2268,0.2349,0.236,0.2411,0.2507,0.2567,0.2605,0.2637,0.2646,0.2628,0.261,0.2598,0.2589,0.2578,0.2575,0.2632,0.2584,0.2583,0.2582,0.2603,0.2697,0.2708,0.2588,0.2588,0.2588,0,0,0.2239,0.2275,0.2286,0.2353,0.2438,0.2503,0.2537,0.2631,0.265,0.2633,0.2621,0.2602,0.2592,0.2579,0.257,0.2576,0.2642,0.2579,0.2579,0.2601,0.2696,0.2708,0.272,0.2587,0.2587,0.2587,0,0,0.2253,0.2251,0.2293,0.2361,0.2478,0.2524,0.2542,0.263,0.264,0.2634,0.2615,0.2597,0.2573,0.2576,0.2575,0.256,0.2627,0.2552,0.2577,0.2667,0.2679,0.2691,0.2775,0.2794,0.2556,0.2556,0.2556,0,0.2237,0.2269,0.233,0.2397,0.2454,0.252,0.2579,0.2611,0.2647,0.2647,0.2618,0.2604,0.2583,0.2599,0.2579,0.2565,0.2624,0.2588,0.2671,0.2684,0.2696,0.2779,0.28,0.2556,0.2556,0.2556,0.2556,0,0.2305,0.2326,0.2372,0.2444,0.2506,0.2576,0.2627,0.2641,0.2635,0.2652,0.2648,0.2623,0.2623,0.261,0.2585,0.2649,0.2667,0.266,0.2689,0.2709,0.2794,0.2816,0.2557,0.2557,0.2557,0.2557,0,0,0.2261,0.2388,0.2399,0.2434,0.2532,0.2586,0.2614,0.2664,0.2688,0.2678,0.2712,0.267,0.2671,0.2669,0.2653,0.2714,0.2826,0.2717,0.2722,0.2824,0.3038,0.2872,0.288,0.2845,0.2848,0.2851,0.3065,0,0.2296,0.24,0.2447,0.2516,0.2577,0.2624,0.2645,0.2685,0.2702,0.2735,0.2738,0.2757,0.2693,0.2707,0.2751,0.2815,0.2884,0.277,0.2983,0.2989,0.2859,0.29,0.2651,0.2804,0.3086,0.309,0.3093,0,0.2353,0.2403,0.2485,0.2548,0.258,0.2604,0.2665,0.2696,0.2759,0.2779,0.2812,0.2831,0.2894,0.2848,0.299,0.2924,0.298,0.3029,0.3038,0.29,0.2863,0.2827,0.2833,0.3129,0.3126,0.3124,0.3121,0,0.2332,0.2423,0.2472,0.2505,0.2588,0.2601,0.2631,0.2698,0.2744,0.2827,0.2893,0.2948,0.3011,0.309,0.3138,0.3099,0.3314,0.3282,0.3194,0.3185,0.3021,0.2988,0.3412,0.3412,0.3411,0.341,0.341,0,0.2356,0.2394,0.2455,0.2487,0.2515,0.2581,0.2629,0.2673,0.2773,0.2846,0.2911,0.299,0.3082,0.3189,0.3219,0.326,0.3386,0.3218,0.3231,0.301,0.2975,0.3287,0.327,0.3418,0.3417,0.3415,0.3414,0,0.2344,0.2403,0.2447,0.2502,0.2515,0.2534,0.2626,0.268,0.2777,0.2893,0.2937,0.3078,0.3193,0.3271,0.3421,0.3361,0.3426,0.3412,0.3129,0.3099,0.3228,0.3208,0.3364,0.336,0.3356,0.3354,0.3351,0,0.2363,0.2382,0.2433,0.2457,0.2476,0.2518,0.2564,0.266,0.2732,0.2925,0.2987,0.3146,0.3184,0.3321,0.3286,0.3324,0.3401,0.3101,0.2948,0.3228,0.3226,0.3211,0.3197,0.2763,0.2756,0.275,0.2746,0,0.2363,0.2371,0.2406,0.2444,0.248,0.2521,0.2588,0.2645,0.2777,0.2846,0.2959,0.301,0.312,0.3003,0.3023,0.3004,0.3058,0.2978,0.3412,0.2765,0.2664,0.266,0.2667,0.2695,0.27,0.2704,0.2706,0.2708,0.2355,0.236,0.2405,0.2426,0.2479,0.2513,0.2524,0.2574,0.2623,0.266,0.28,0.2751,0.2784,0.264,0.2595,0.2574,0.2765,0.2647,0.2665,0.2689,0.2532,0.2426,0.2385,0.2388,0.2391,0.2394,0.2396,0,0.233,0.2354,0.2389,0.2422,0.2445,0.2481,0.2541,0.2501,0.2466,0.2454,0.2438,0.2203,0.2126,0.2198,0.2079,0.207,0.2064,0.1996,0.1979,0.2031,0.2077,0.1888,0.1571,0.1568,0.1566,0.1564,0,0,0.2332,0.2342,0.2344,0.2367,0.2391,0.2375,0.238,0.229,0.225,0.2013,0.1895,0.1977,0.2099,0.1783,0.1761,0.1658,0.1832,0.1594,0.2258,0.2289,0.2331,0.2454,0.222,0,0,0,0,0]},{"header":{"parameterUnit":"m.s-1","parameterCategory":2,"la1":30.2991,"la2":30.254,"lo1":-89.0895,"lo2":-89.0444,"dy":0.0017,"dx":0.0017,"nx":28,"ny":28,"refTime":"2025-09-15T03:00:00:Z","depth":"2","parameterNumber":3,"parameterNumberName":"V-component_of_CURRENTS"},"data":[0,0,0,0,0,0,0,0,0,0,0,0,0,0,0,0,0,0,0,0,0,0,0,0,0,0,0,0,0,0,0,0,0,0,0,0,0,0,0,0,0,0,0,0,0,0,0,0,0,0,0,0,0,0,0,0,0,0,0.0092,0.0091,0,-0.0131,-0.0135,-0.0138,-0.0358,-0.036,-0.0362,-0.0364,-0.0455,-0.0456,-0.0456,0,0,0,0,0,0,0,0,0,0,0,0,0,0.0029,0.0032,0.0092,0.0091,0.0089,-0.0131,-0.0135,-0.0139,-0.0358,-0.036,-0.0362,-0.0364,-0.0455,-0.0455,-0.0456,0,0,0,0,0,0,0,0,0,0,0,0,0,-0.0052,0.0033,0.0093,-0.0039,-0.0053,-0.013,-0.0135,-0.014,-0.0357,-0.036,-0.0363,-0.0366,-0.0455,-0.0455,-0.0456,-0.0403,0,0,-0.0459,-0.046,0,0,0,0,0,0,0,0,-0.0047,-0.0051,-0.0018,-0.003,-0.0045,-0.0211,-0.0191,-0.0218,-0.0356,-0.0252,-0.0364,-0.0367,-0.0352,-0.0362,-0.0414,-0.0408,-0.0412,-0.0459,-0.046,-0.046,-0.046,0,0,0,0,0,0,0,-0.0041,-0.0044,-0.0007,-0.002,-0.0036,-0.019,-0.0203,-0.02,-0.0288,-0.0261,-0.0275,-0.0283,-0.0361,-0.0412,-0.0417,-0.0413,-0.0459,-0.046,-0.0461,-0.0461,-0.0535,-0.0537,0,0,0,0,0,0,0.0027,-0.0036,0.0001,-0.0012,-0.0042,-0.0184,-0.02,-0.0163,-0.0292,-0.0312,-0.028,-0.0292,-0.0409,-0.0415,-0.042,-0.0465,-0.046,-0.0461,-0.0462,-0.0534,-0.0536,-0.0537,0,0,0,0,0,0,0.0027,0.0035,0.001,-0.0026,-0.0038,-0.0177,-0.0136,-0.0166,-0.0253,-0.0306,-0.0327,-0.034,-0.0412,-0.0419,-0.0431,-0.0466,-0.0461,-0.0462,-0.0532,-0.0534,-0.0536,-0.0487,0,0,0,0,0,0,0.0027,0.0037,0.006,-0.0018,-0.0033,-0.0051,-0.0133,-0.0168,-0.0246,-0.0265,-0.0361,-0.0372,-0.0415,-0.0429,-0.0432,-0.0467,-0.0463,-0.053,-0.0533,-0.0536,-0.0487,-0.0487,-0.0488,0,0,0,0,0,0.0027,0.0059,0.0064,0.0066,0.0015,-0.005,-0.0075,-0.0194,-0.0245,-0.0284,-0.0334,-0.0371,-0.0451,-0.0428,-0.0432,-0.0468,-0.0529,-0.0532,-0.0535,-0.0487,-0.0487,-0.0488,0,0,0,0,0,0,0.0043,0.0039,0.0042,0.0076,0.0022,-0.0084,-0.0137,-0.0193,-0.0271,-0.0294,-0.0349,-0.0362,-0.0397,-0.0429,-0.0403,-0.0505,-0.0511,-0.0515,-0.0474,-0.0474,-0.0475,-0.0472,-0.0464,0,0,0,0,0,0.0075,0.0092,0.0066,0.0087,0.0066,-0.0029,-0.0077,-0.0145,-0.0209,-0.0255,-0.0327,-0.0388,-0.0408,-0.0435,-0.0472,-0.0491,-0.0496,-0.0533,-0.0533,-0.0533,-0.0537,-0.0548,-0.0548,-0.0548,-0.0548,-0.0548,0,0,0.0084,0.0089,0.0094,0.009,0.003,-0.0005,-0.0072,-0.0143,-0.0174,-0.0236,-0.0328,-0.0377,-0.041,-0.0455,-0.0478,-0.0488,-0.0535,-0.0537,-0.0536,-0.0541,-0.0551,-0.055,-0.055,-0.055,-0.0549,-0.0549,0,0,0.009,0.0123,0.012,0.0087,0.003,-0.0013,-0.0024,-0.0135,-0.0192,-0.0235,-0.0302,-0.0363,-0.042,-0.0473,-0.0486,-0.0502,-0.0526,-0.054,-0.0544,-0.0553,-0.0552,-0.0552,-0.054,-0.0539,-0.0551,-0.0551,-0.0551,0,0.0091,0.012,0.01,0.0081,0.0052,-0.0006,-0.0034,-0.0077,-0.0188,-0.0221,-0.0259,-0.0387,-0.0426,-0.0457,-0.0491,-0.0501,-0.0503,-0.0528,-0.0549,-0.0549,-0.0549,-0.0538,-0.0537,-0.0549,-0.055,-0.055,-0.055,0,0.0082,0.0099,0.0086,0.0068,0.0035,-0.0002,-0.0034,-0.0093,-0.0152,-0.0209,-0.028,-0.0344,-0.0427,-0.0463,-0.0474,-0.052,-0.0517,-0.0531,-0.0535,-0.0545,-0.0534,-0.0534,-0.0547,-0.0547,-0.0548,-0.0548,0,0,0.0096,0.0083,0.0076,0.0078,0.0025,0.0003,-0.0027,-0.0072,-0.0089,-0.0202,-0.0235,-0.0327,-0.0399,-0.0423,-0.0475,-0.0507,-0.0509,-0.0529,-0.053,-0.0494,-0.0513,-0.0518,-0.0519,-0.0521,-0.0521,-0.0521,-0.0496,0,0.0085,0.0068,0.0062,0.0046,0.0034,-0.0004,-0.0016,-0.0062,-0.0105,-0.0151,-0.0223,-0.0259,-0.0361,-0.0388,-0.0447,-0.0475,-0.0511,-0.0514,-0.0531,-0.0531,-0.0515,-0.052,-0.0492,-0.0469,-0.0496,-0.0496,-0.0496,0,0.0063,0.0069,0.005,0.006,0.0051,0.004,0.0012,-0.0001,-0.0048,-0.0077,-0.0158,-0.0204,-0.0272,-0.0333,-0.0427,-0.0422,-0.0479,-0.0512,-0.0512,-0.0537,-0.0537,-0.0472,-0.0468,-0.0496,-0.0496,-0.0496,-0.0496,0,0.0064,0.0061,0.0057,0.0049,0.0046,0.004,0.0039,-0.0004,0.0023,-0.0016,-0.0002,-0.0118,-0.0121,-0.0233,-0.0349,-0.0372,-0.0424,-0.0452,-0.0516,-0.0515,-0.0507,-0.0506,-0.0521,-0.0521,-0.0521,-0.0521,-0.0521,0,0.0052,0.0057,0.0066,0.0067,0.0104,0.0072,0.011,0.0089,0.0097,0.0136,0.0045,0.0061,-0.0094,-0.0156,-0.0294,-0.0402,-0.0386,-0.0514,-0.0515,-0.049,-0.0488,-0.0533,-0.0535,-0.052,-0.052,-0.052,-0.052,0,0.0056,0.0044,0.0074,0.009,0.0109,0.0137,0.0212,0.0241,0.0236,0.0294,0.0304,0.024,0.0159,-0.0004,-0.0143,-0.0288,-0.0407,-0.0456,-0.0411,-0.0409,-0.0502,-0.0502,-0.0503,-0.0503,-0.0503,-0.0503,-0.0503,0,0.0053,0.006,0.0119,0.0166,0.0187,0.0245,0.0292,0.0311,0.0357,0.0394,0.0429,0.039,0.0345,0.0145,-0.0091,-0.0298,-0.0364,-0.0418,-0.0481,-0.0502,-0.0503,-0.0502,-0.0502,-0.0438,-0.0437,-0.0437,-0.0437,0,0.008,0.0098,0.0139,0.0226,0.0291,0.0385,0.0449,0.0514,0.053,0.0596,0.0635,0.0616,0.0431,0.0235,-0.0046,-0.0208,-0.0388,-0.0417,-0.0435,-0.0456,-0.0442,-0.0442,-0.0443,-0.0433,-0.0433,-0.0434,-0.0434,-0.0434,0.0118,0.0156,0.0201,0.0286,0.038,0.047,0.054,0.0624,0.0717,0.0788,0.0765,0.0761,0.0525,0.0191,-0.0057,-0.0318,-0.0337,-0.0451,-0.0451,-0.0452,-0.0459,-0.0447,-0.0439,-0.0439,-0.0439,-0.0439,-0.044,0,0.014,0.0174,0.0257,0.0343,0.044,0.0487,0.0606,0.0684,0.0797,0.0882,0.0925,0.0728,0.0522,0.0265,-0.0106,-0.0349,-0.0379,-0.0428,-0.0413,-0.0415,-0.0417,-0.0423,-0.0392,-0.0392,-0.0393,-0.0393,0,0,0.015,0.0199,0.0224,0.0348,0.0434,0.0558,0.0628,0.0767,0.0863,0.0956,0.0975,0.0938,0.0619,0.0363,0.0038,-0.0163,-0.0235,-0.0211,-0.0229,-0.0177,-0.0175,-0.0417,-0.0426,0,0,0,0,0]}],[{"header":{"parameterUnit":"m.s-1","parameterCategory":2,"la1":30.2991,"la2":30.254,"lo1":-89.0895,"lo2":-89.0444,"dy":0.0017,"dx":0.0017,"nx":28,"ny":28,"refTime":"2025-09-15T03:00:00:Z","depth":"4","parameterNumber":2,"parameterNumberName":"U-component_of_CURRENTS"},"data":[0,0,0,0,0,0,0,0,0,0,0,0,0,0,0,0,0,0,0,0,0,0,0,0,0,0,0,0,0,0,0,0,0,0,0,0,0,0,0,0,0,0,0,0,0,0,0,0,0,0,0,0,0,0,0,0,0,0,0.0947,0.0947,0,0.0973,0.0973,0.0974,0.1031,0.1032,0.1033,0.1034,0.115,0.1152,0.1155,0,0,0,0,0,0,0,0,0,0,0,0,0,0.0869,0.0871,0.0947,0.0947,0.0947,0.0972,0.0973,0.0974,0.1031,0.1032,0.1033,0.1034,0.115,0.1152,0.1155,0,0,0,0,0,0,0,0,0,0,0,0,0,0.0902,0.0871,0.0947,0.0977,0.0979,0.0972,0.0973,0.0974,0.103,0.1032,0.1033,0.1035,0.1149,0.1152,0.1155,0.1148,0,0,0.1165,0.1167,0,0,0,0,0,0,0,0,0.09,0.0905,0.0972,0.0975,0.0978,0.0998,0.0988,0.1036,0.103,0.1014,0.1034,0.1035,0.1105,0.1112,0.1116,0.1153,0.1158,0.1166,0.1168,0.1169,0.117,0,0,0,0,0,0,0,0.0898,0.0904,0.096,0.0972,0.0975,0.0961,0.0969,0.0997,0.1055,0.1015,0.1019,0.1017,0.1108,0.1113,0.1119,0.116,0.1166,0.1169,0.1171,0.1172,0.1278,0.1279,0,0,0,0,0,0,0.0892,0.0902,0.0959,0.096,0.0939,0.0962,0.097,0.0992,0.1053,0.1062,0.1016,0.102,0.1106,0.1115,0.1124,0.1231,0.1169,0.1172,0.1174,0.1277,0.1278,0.1279,0,0,0,0,0,0,0.0891,0.0898,0.0958,0.0928,0.0935,0.0962,0.0986,0.0992,0.102,0.1052,0.1064,0.1041,0.1108,0.1119,0.118,0.1231,0.1174,0.1177,0.1276,0.1278,0.1279,0.1372,0,0,0,0,0,0,0.0889,0.0898,0.0926,0.0929,0.0936,0.0979,0.0984,0.0991,0.1014,0.102,0.1076,0.1087,0.111,0.1175,0.1183,0.1235,0.118,0.1275,0.1277,0.1278,0.1368,0.1377,0.1384,0,0,0,0,0,0.0887,0.0908,0.0927,0.0934,0.0969,0.098,0.0984,0.1008,0.1014,0.1037,0.1076,0.1087,0.119,0.1179,0.1188,0.1242,0.1275,0.1276,0.1278,0.1365,0.1375,0.1384,0,0,0,0,0,0,0.0892,0.0915,0.0937,0.0969,0.0987,0.099,0.1004,0.1015,0.1059,0.107,0.1102,0.1117,0.1192,0.1189,0.1175,0.1271,0.1231,0.1235,0.1294,0.1304,0.1311,0.128,0.1182,0,0,0,0,0,0.0904,0.0931,0.0948,0.0978,0.0984,0.0998,0.1008,0.1023,0.1049,0.107,0.1118,0.1156,0.12,0.123,0.1267,0.1316,0.1316,0.1351,0.1359,0.1366,0.1343,0.1399,0.1411,0.1285,0.1285,0.1285,0,0,0.0906,0.093,0.0941,0.0981,0.0993,0.101,0.1009,0.1027,0.1054,0.1076,0.1149,0.1193,0.1218,0.1288,0.1319,0.1298,0.1405,0.1368,0.1374,0.1347,0.1403,0.1415,0.1426,0.1286,0.1286,0.1286,0,0,0.0909,0.0952,0.0967,0.0982,0.1007,0.1027,0.1036,0.1064,0.1095,0.1151,0.1184,0.1244,0.1313,0.1348,0.1366,0.1425,0.1448,0.1454,0.1474,0.1531,0.1542,0.1552,0.1589,0.1601,0.1456,0.1456,0.1456,0,0.092,0.0949,0.0972,0.0986,0.1006,0.1037,0.1056,0.1082,0.1137,0.1172,0.1186,0.1305,0.1329,0.1407,0.1432,0.1445,0.1481,0.1447,0.1544,0.1553,0.1562,0.1597,0.1609,0.1461,0.146,0.146,0.1459,0,0.0909,0.0951,0.0957,0.1002,0.1031,0.1051,0.1087,0.1139,0.1186,0.1219,0.1318,0.1365,0.1435,0.1462,0.1464,0.1549,0.1559,0.1556,0.1527,0.1581,0.1614,0.1625,0.1468,0.1466,0.1464,0.1463,0,0,0.0885,0.0946,0.0945,0.0986,0.1044,0.1065,0.1124,0.1191,0.1237,0.131,0.1374,0.1455,0.1498,0.1518,0.1558,0.1593,0.1688,0.1605,0.1606,0.1651,0.1826,0.1698,0.1698,0.1733,0.1735,0.1737,0.1833,0,0.0881,0.0919,0.0952,0.1011,0.1045,0.1103,0.116,0.1224,0.1291,0.1364,0.1418,0.1505,0.1517,0.158,0.1618,0.1683,0.1719,0.1661,0.1755,0.1756,0.1645,0.1706,0.1743,0.1842,0.1844,0.1846,0.1847,0,0.0856,0.0897,0.095,0.105,0.1066,0.1115,0.1228,0.1278,0.1372,0.1426,0.1516,0.1567,0.1661,0.1642,0.1775,0.1757,0.1785,0.1809,0.1815,0.1658,0.1648,0.1768,0.1867,0.1865,0.1864,0.1863,0.1861,0,0.083,0.0901,0.0962,0.0983,0.1087,0.1142,0.1211,0.131,0.1374,0.1485,0.155,0.1656,0.1738,0.18,0.1854,0.1849,0.1958,0.1959,0.1862,0.1854,0.19,0.1888,0.2012,0.2012,0.2012,0.2012,0.2011,0,0.082,0.0857,0.0961,0.0983,0.107,0.1145,0.1254,0.1321,0.1432,0.1507,0.1598,0.1668,0.1786,0.1857,0.1883,0.1907,0.1999,0.186,0.187,0.1938,0.1929,0.1909,0.1896,0.2015,0.2014,0.2014,0.2013,0,0.0764,0.0837,0.0897,0.1009,0.1066,0.1117,0.1283,0.1345,0.1467,0.1565,0.1615,0.173,0.1832,0.1901,0.1995,0.1949,0.1974,0.1944,0.2007,0.202,0.1827,0.1818,0.1871,0.1867,0.1864,0.1861,0.1859,0,0.0718,0.0755,0.0888,0.0948,0.1007,0.1125,0.1211,0.1352,0.1412,0.1586,0.1604,0.1745,0.1809,0.184,0.1914,0.1957,0.1923,0.1923,0.1862,0.1807,0.1813,0.1809,0.1803,0.1854,0.1853,0.1852,0.1851,0,0.0636,0.0703,0.0772,0.0878,0.0979,0.1083,0.1206,0.1248,0.1399,0.1528,0.1583,0.1634,0.1717,0.1772,0.1807,0.1827,0.1924,0.189,0.1896,0.1839,0.1788,0.1796,0.1794,0.184,0.1842,0.1843,0.1844,0,0.0573,0.0594,0.0708,0.0782,0.0904,0.0975,0.108,0.1171,0.1259,0.1434,0.145,0.1579,0.1697,0.1704,0.1737,0.1749,0.1732,0.1676,0.1693,0.1706,0.1604,0.1512,0.1487,0,0,0,0,0,0.0506,0.0527,0.0598,0.0693,0.0805,0.0879,0.1032,0.1135,0.1284,0.1288,0.1371,0.1437,0.1505,0.156,0.1544,0.1664,0.1731,0.1636,0.1671,0.178,0.1793,0.1685,0,0,0,0,0,0,0.0471,0.0542,0.0555,0.0589,0.0638,0.0761,0.0854,0.0988,0.1001,0.1157,0.1198,0.1331,0.1409,0.1488,0.1503,0.1525,0.1517,0.1725,0.1721,0.1773,0.1784,0.1794,0.1688,0,0,0,0,0]},{"header":{"parameterUnit":"m.s-1","parameterCategory":2,"la1":30.2991,"la2":30.254,"lo1":-89.0895,"lo2":-89.0444,"dy":0.0017,"dx":0.0017,"nx":28,"ny":28,"refTime":"2025-09-15T03:00:00:Z","depth":"4","parameterNumber":3,"parameterNumberName":"V-component_of_CURRENTS"},"data":[0,0,0,0,0,0,0,0,0,0,0,0,0,0,0,0,0,0,0,0,0,0,0,0,0,0,0,0,0,0,0,0,0,0,0,0,0,0,0,0,0,0,0,0,0,0,0,0,0,0,0,0,0,0,0,0,0,0,0.0303,0.0303,0,0.0291,0.0291,0.029,0.0271,0.0271,0.0271,0.0271,0.0219,0.0218,0.0216,0,0,0,0,0,0,0,0,0,0,0,0,0,0.0286,0.0286,0.0303,0.0303,0.0304,0.0291,0.0291,0.029,0.0271,0.0271,0.0271,0.0271,0.022,0.0218,0.0216,0,0,0,0,0,0,0,0,0,0,0,0,0,0.0281,0.0286,0.0303,0.0295,0.0295,0.0291,0.0291,0.029,0.027,0.0271,0.0271,0.0271,0.022,0.0218,0.0216,0.0203,0,0,0.021,0.0209,0,0,0,0,0,0,0,0,0.0282,0.0282,0.0296,0.0296,0.0295,0.0286,0.0266,0.026,0.027,0.0275,0.0271,0.0271,0.0241,0.0237,0.0229,0.0201,0.0198,0.021,0.0208,0.0207,0.0207,0,0,0,0,0,0,0,0.0282,0.0282,0.0294,0.0297,0.0296,0.0285,0.0284,0.0265,0.0254,0.0275,0.0274,0.028,0.0239,0.0231,0.0228,0.0198,0.021,0.0208,0.0207,0.0206,0.0163,0.0163,0,0,0,0,0,0,0.0293,0.0282,0.0295,0.0294,0.0293,0.0286,0.0284,0.0286,0.0255,0.0252,0.028,0.0279,0.0235,0.023,0.0226,0.0225,0.0208,0.0206,0.0204,0.0163,0.0163,0.0163,0,0,0,0,0,0,0.0293,0.0294,0.0295,0.0291,0.0291,0.0286,0.0288,0.0285,0.0288,0.026,0.0255,0.0287,0.0235,0.0229,0.0218,0.0222,0.0205,0.0203,0.0163,0.0163,0.0163,0.0212,0,0,0,0,0,0,0.0292,0.0294,0.0299,0.0292,0.0292,0.0302,0.0288,0.0285,0.0293,0.0292,0.0264,0.0259,0.0234,0.0222,0.0216,0.0219,0.0201,0.0163,0.0163,0.0163,0.021,0.0214,0.0217,0,0,0,0,0,0.0291,0.0304,0.0299,0.0301,0.0299,0.0303,0.0302,0.0295,0.0294,0.0297,0.0279,0.026,0.0219,0.022,0.0214,0.0216,0.0163,0.0163,0.0163,0.0209,0.0213,0.0217,0,0,0,0,0,0,0.0295,0.0303,0.0298,0.031,0.031,0.0302,0.031,0.0305,0.0293,0.0293,0.0264,0.0258,0.0247,0.0226,0.0229,0.0203,0.0186,0.0185,0.0223,0.0227,0.023,0.0242,0.0199,0,0,0,0,0,0.03,0.0312,0.0312,0.0321,0.0326,0.0319,0.0322,0.0316,0.0307,0.0303,0.0287,0.0264,0.0241,0.0232,0.0208,0.0199,0.0154,0.0195,0.0198,0.0201,0.0206,0.0141,0.0139,0.0164,0.0164,0.0164,0,0,0.0307,0.0311,0.0319,0.0324,0.0324,0.0335,0.032,0.0329,0.0333,0.0298,0.0302,0.0276,0.024,0.0227,0.022,0.0213,0.0167,0.0201,0.0204,0.0208,0.0141,0.0139,0.0136,0.0164,0.0164,0.0164,0,0,0.0327,0.0329,0.0347,0.0354,0.0361,0.0353,0.0361,0.0359,0.0353,0.0352,0.0323,0.0306,0.028,0.0253,0.0236,0.0244,0.0186,0.0234,0.0262,0.0199,0.0196,0.0193,0.0121,0.0111,0.0237,0.0237,0.0237,0,0.0331,0.0352,0.0353,0.0373,0.0384,0.0367,0.0386,0.0377,0.037,0.0364,0.036,0.0315,0.0292,0.0264,0.0269,0.0253,0.02,0.0252,0.0203,0.0199,0.0195,0.0122,0.011,0.0239,0.0239,0.0239,0.0239,0,0.0369,0.0384,0.0399,0.0416,0.0426,0.0439,0.0434,0.0432,0.0424,0.041,0.0389,0.0355,0.0327,0.0316,0.0298,0.0261,0.0226,0.0213,0.0194,0.0196,0.0118,0.0105,0.0243,0.0242,0.0241,0.0241,0,0,0.0374,0.0415,0.0422,0.0433,0.045,0.0457,0.0467,0.046,0.0453,0.0442,0.0425,0.0401,0.0378,0.0356,0.0324,0.028,0.021,0.0242,0.0238,0.0172,0.0053,0.0072,0.0059,0.0183,0.0181,0.018,0.0005,0,0.0396,0.0444,0.0459,0.049,0.0509,0.0504,0.0512,0.0504,0.0484,0.0458,0.0422,0.0394,0.0392,0.0371,0.033,0.0234,0.0181,0.0258,0.006,0.0054,0.0072,0.0047,0.0175,-0.0005,-0.0008,-0.001,-0.0011,0,0.0425,0.0451,0.05,0.0519,0.0527,0.0543,0.054,0.0542,0.0504,0.049,0.046,0.0418,0.0361,0.0353,0.0208,0.0252,0.0164,0.0093,0.0084,0.0079,0.005,-0.0005,-0.0035,-0.0033,-0.0031,-0.003,-0.0028,0,0.0423,0.047,0.0509,0.0523,0.055,0.0562,0.0566,0.0552,0.0543,0.05,0.0475,0.041,0.0353,0.0254,0.0135,0.0155,-0.0045,-0.0044,-0.0112,-0.0114,-0.01,-0.0095,-0.0153,-0.0153,-0.0153,-0.0152,-0.0152,0,0.0431,0.0456,0.0513,0.0529,0.0557,0.0577,0.0584,0.0576,0.0553,0.0532,0.0489,0.0443,0.0323,0.0204,0.0109,-0.0041,-0.0071,-0.0116,-0.0155,-0.0078,-0.0068,-0.0111,-0.0104,-0.0159,-0.0157,-0.0156,-0.0155,0,0.0416,0.0459,0.0494,0.054,0.0556,0.0575,0.0597,0.059,0.0578,0.0541,0.0526,0.0432,0.0297,0.0168,-0.0023,-0.0085,-0.0223,-0.0271,-0.0193,-0.0225,-0.0248,-0.0236,-0.0371,-0.0371,-0.0372,-0.0372,-0.0373,0,0.0411,0.0433,0.0498,0.0522,0.0544,0.0578,0.0592,0.06,0.0591,0.0536,0.0505,0.0379,0.0309,0.0052,-0.007,-0.0265,-0.0274,-0.0361,-0.0275,-0.0244,-0.027,-0.0257,-0.0245,-0.0374,-0.0374,-0.0374,-0.0374,0,0.0387,0.042,0.0454,0.0505,0.0536,0.0563,0.0582,0.058,0.0578,0.0562,0.0484,0.0373,0.0211,0.0054,-0.0103,-0.0233,-0.0307,-0.0368,-0.0366,-0.0286,-0.025,-0.0272,-0.0259,-0.0376,-0.0376,-0.0376,-0.0376,0,0.0371,0.0389,0.0441,0.0482,0.0524,0.0541,0.0553,0.0549,0.0546,0.0508,0.0475,0.0338,0.0256,0.0066,-0.0076,-0.02,-0.0214,-0.0244,-0.0249,-0.0249,-0.0136,-0.0066,-0.018,0,0,0,0,0,0.0358,0.0379,0.0409,0.0462,0.0502,0.0525,0.0544,0.0554,0.0558,0.0511,0.0504,0.0374,0.0181,0.0089,-0.003,-0.0093,-0.0248,-0.0237,-0.0287,-0.0388,-0.0386,-0.0269,0,0,0,0,0,0,0.0348,0.0385,0.0401,0.0442,0.0473,0.0508,0.0523,0.0521,0.0501,0.0495,0.0395,0.0356,0.0165,0.026,-0.0025,-0.0065,-0.0112,-0.0324,-0.0327,-0.039,-0.0388,-0.0386,-0.0264,0,0,0,0,0]}]]